Location: Devore Heights
(34.2372°N, 117.4156°W)
Time: 03:32:21
(UTC+00:00)

SR - Pass Details

Date: 21 September 2024
Orbit: 578 x 855 km, 66.7° (Epoch: 02 October)

Event Time Altitude Azimuth Distance (km) Brightness Sun altitude
Rises 18:00:56 0° 172° (S) 2,837 ? 48.6°
Reaches altitude 10° 18:03:41 10° 155° (SSE) 1,911 ? 48.9°
Maximum altitude 18:06:45 19° 108° (ESE) 1,384 ? 49.3°
Drops below altitude 10° 18:09:47 10° 62° (ENE) 1,890 ? 49.7°
Sets 18:12:29 0° 45° (NE) 2,796 ? 50.1°
